Content
SEND FEEDBACK

Daily
Averages
Monthly
Summary
United States of America

GREENSBORO, NORTH CAROLINA


Home > North America > United States > North Carolina
Elevation: 886 feet     Latitude: 36 05N     Longitude: 079 57W

WEATHER
 
SELECT A DAY
Number of Records: 102,443;   Date Range: 1/1/95 - 7/7/14
 
SHARE

PRINT THIS DATA

[ ← Previous Day ]
WEATHER ALMANAC - JANUARY 31, 2013
[ Next Day → ]
[ °C ]   °F
Weather ElementAverageHighLow
Temperature41.7 °F54 °F (12:54 am)33.1 °F (11:54 pm)
Dewpoint25.5 °F50 °F (12:54 am)17.1 °F (6:54 pm)
Humidity54.3 %87 % (3:29 am)35 % (2:54 pm)
Barometer29.79 in29.99 in (10:54 pm)29.44 in (12:54 am)
Wind Speed17.9 mph31.1 mph (1:54 pm)
Wind Gust38 mph (1:54 pm)
Weather ElementAverage
Visibility9.9 mi
Wind DirectionW (264.4 °)

Weather ElementTotal
Precipitation0.01 in
Heating Degree Days21.5 (Base 65)
Averaged from 25 records on January 31, 2013
WEATHER CONDITIONS BREAKOUT
WIND DIRECTION BREAKOUT
WEATHER BY HOUR - JANUARY 31, 2013
[ °C ]   °F
Local TimeTemperatureDewpointHumidityBarometerVisibilityWind DirectionWind SpeedGust SpeedPrecipitationEventsConditions
12:54 AM54.0 °F50.0 °F86 %29.44 in10.0 miSW (230°)17.3 mph26.5 mph0.01 inOvercast
1:54 AM51.1 °F46.0 °F83 %29.47 in10.0 miSW (230°)25.3 mph35.7 mph0.00 inOvercast
2:54 AM48.9 °F44.1 °F83 %29.49 in8.0 miWSW (240°)19.6 mph28.8 mph0.00 inRainLight Rain
3:29 AM46.4 °F42.8 °F87 %29.52 in10.0 miWSW (250°)16.1 mph25.3 mph0.00 inMostly Cloudy
3:54 AM48.0 °F39.0 °F71 %29.53 in10.0 miWest (270°)24.2 mph32.2 mph0.00 inMostly Cloudy
4:54 AM45.0 °F32.0 °F60 %29.59 in10.0 miWest (270°)21.9 mph36.8 mphPartly Cloudy
5:54 AM42.1 °F28.0 °F58 %29.64 in10.0 miWest (280°)19.6 mphPartly Cloudy
6:54 AM39.9 °F27.0 °F60 %29.71 in10.0 miWest (280°)17.3 mph26.5 mphScattered Clouds
7:54 AM37.9 °F23.0 °F55 %29.76 in10.0 miWNW (300°)16.1 mphClear
8:54 AM39.0 °F21.9 °F50 %29.81 in10.0 miWest (280°)17.3 mph29.9 mphClear
9:54 AM39.9 °F21.9 °F49 %29.84 in10.0 miWNW (290°)19.6 mph28.8 mphScattered Clouds
10:54 AM39.9 °F21.0 °F47 %29.86 in10.0 miWest (280°)23.0 mph31.1 mphScattered Clouds
11:54 AM43.0 °F21.9 °F43 %29.87 in10.0 miWest (280°)16.1 mph26.5 mphScattered Clouds
12:54 PM43.0 °F19.0 °F38 %29.85 in10.0 miWest (270°)24.2 mph32.2 mphScattered Clouds
1:54 PM45.0 °F19.0 °F36 %29.86 in10.0 miWNW (290°)31.1 mph38.0 mphScattered Clouds
2:54 PM44.1 °F18.0 °F35 %29.88 in10.0 miWNW (290°)27.6 mph36.8 mphScattered Clouds
3:54 PM44.1 °F18.0 °F35 %29.91 in10.0 miWNW (290°)25.3 mph38.0 mphScattered Clouds
4:54 PM42.1 °F18.0 °F38 %29.94 in10.0 miWest (280°)20.7 mph27.6 mphPartly Cloudy
5:54 PM39.9 °F18.0 °F41 %29.95 in10.0 miWest (280°)20.7 mph28.8 mphPartly Cloudy
6:54 PM37.9 °F17.1 °F43 %29.97 in10.0 miWest (270°)9.2 mphClear
7:54 PM37.0 °F17.1 °F44 %29.98 in10.0 miWSW (250°)10.4 mphClear
8:54 PM34.0 °F18.0 °F52 %29.98 in10.0 miSW (230°)5.8 mphClear
9:54 PM34.0 °F18.0 °F52 %29.98 in10.0 miSW (230°)6.9 mphClear
10:54 PM34.0 °F18.0 °F52 %29.99 in10.0 miWSW (240°)5.8 mphClear
11:54 PM33.1 °F19.9 °F59 %29.96 in10.0 miSSW (210°)5.8 mphPartly Cloudy
Hourly data recorded from KGSO, located miles away from Greensboro, North Carolina







STORIES FROM OUR PARTNERS